Location: Munkebjergskolens Observatorium
(55.3864°N, 10.3987°E)
Time: 18:21:07
(UTC+02:00)

NOAA 18 - Pass Details

Date: 20 March 2023
Orbit: 838 x 860 km, 98.9° (Epoch: 02 June)

Event Time Altitude Azimuth Distance (km) Brightness Sun altitude
Exits shadow 21:12:44 45° 101° (E) 1,156 5.5 -22.2°
Maximum altitude 21:13:49 52° 64° (ENE) 1,064 5.5 -22.3°
Drops below altitude 10° 21:19:12 10° 350° (N) 2,512 8.3 -23.0°
Sets 21:21:38 0° 346° (NNW) 3,454 9.2 -23.2°
